Aeroporto :
LOGIN :

Iscrizione | Disclaimer

   EN    FR    IT 

 










Sommario :    VFR   VFR Marginale   IFR   IFR Intensivo   IFR Molto Intensivo
Visibilità : 
Base nubi : 
>= 8 km
>= 3000ft
5 / 8 km
1000 / 3000 ft
1500m / 5 km
500 / 1000 ft
800 / 1500m
200 / 500 ft
< 800m
< 200 ft
Simboli :   Temporali  Nebbia  Neve Forte  Precipitazioni Forti  Vento > 20 kt
SIGMETs :   Varie  Temporali  Ghiacco  Turbolenza  Onda orograficha  Ceneri Vulcaniche







- Altitudine del aeroporto : 1202 ft
- Codice IATA : IGS


ETSI - Ingolstadt

ULTIMO METAR :
  • 130720Z 07011KT 9999 BKN022 M01/M04 Q1017 WHT BLU TEMPO WHT

METARs OBSOLETI :
  • 130620Z 07011KT 9999 BKN022 M01/M04 Q1017 WHT BLU TEMPO WHT
  • 130545Z 06010KT 9999 BKN022 M01/M04 Q1017 WHT BLU TEMPO WHT
  • 130520Z 06010KT 9999 BKN026 M01/M04 Q1017 BLU BLU

TAF AMD TAF ETSI
Valido dal 13 a 06 ore il 13 a 15 ore UTC


130533Z 1306/1315 07009KT 9999 NSW FEW020 BKN030
TEMPO 1306/1311 07007KT 8000 SG FEW012 BKN020 BKN090
Nessun NOTAM noto per questo aeroporto.



MetMap, La meteo Aeronautica in un colpo d'occhio ! - Copyright ORBIFLY Dicembre 2007 - Disclaimer

ORBIFLY MET'MAP TEAM :

Programmazione e sviluppo : Alexandra Zaïnal
Concezione e sviluppo : Baudouin d'Aumeries
Co-Programmazione e sviluppo : Marc-Olivier Méhu
Supporto tecnico e logistico : Manuel Goepfert
Aiuto per la traduzione : Arnaldo La Scala

Contatto : metmap@orbifly.com




FONTI E CREDITI :

   NOAA